SCP
0 0 0 0 0 0 0 0 0 0 0 0 0 0 0 -0 -0 -0 -0 0 0 0 0 0 0 0 0 0 0 0 0 0 0 0 0 0 0 0
0 0 0 0 0 0 0 0 0 0 0 0 0 0 0 -0 -0 -0 -0 0 0 0 0 0 0 0 0 0 0 0 0 0 0 0 0 0 0 0
0 0 0 0 0 0 0 0 0 0 0 0 0 0 0 -0 -0 -0 0 0 0 0 0 0 0 0 0 0 0 0 0 0 0 0 0 0 0 0
0 0 0 0 0 0 0 0 0 0 0 0 0 0 0 0 0 0 0 0 0 0 0 0 0 0 0 0 0 0 0 0 0 0 0 0 0 0
0 0 0 0 0 0 0 0 0 0 0 0 0 0 0 0 0 0 0 0 0 0 0 0 0 0 0 0 0 0 0 0 0 0 0 0 0 0
0 0 0 0 0 0 0 0 0 0 0 0 -0 -0 0 0 0 0 0 0 0 0 0 0 0 0 0 0 0 0 0 0 0 0 0 0 0 0
0 0 0 0 0 0 0 0 0 0 0 0 -0 -0 0 0 0 0 0 0 0 0 -0 0 0 0 0 0 0 0 0 0 0 0 0 0 0 0
0 0 0 0 0 0 0 0 0 0 0 0 0 0 0 0 0 0 0 0 0 0 0 0 0 0 0 0 0 0 0 0 0 0 0 0 0 0
0 0 0 0 0 0 0 0 0 0 0 0 0 0 0 0 0 0 0 0 0 0 0 0 0 0 0 0 0 0 0 0 0 0 0 0 0 0
0 0 0 0 0 0 0 0 0 0 0 0 0 0 0 0 0 0 0 0 0 0 0 0 0 0 0 0 0 0 0 0 0 0 0 0 0 0
0 0 0 0 0 0 0 0 0 0 0 0 0 0 0 0 0 0 0 0 0 0 0 0 0 0 0 0 0 0 0 0 0 0 0 0 0 0
0 0 0 0 0 0 0 0 0 0 0 0 0 0 0 0 0 0 0 0 0 0 0 0 0 0 0 0 0 0 0 0 0 0 0 0 0 0
0 0 0 0 0 0 0 0 0 0 0 0 0 0 0 0 0 0 0 0 0 0 0 0 0 0 0 0 0 0 0 0 0 0 0 0 0 0
0 0 0 0 0 0 0 0 0 0 0 0 0 0 0 0 0 0 0 0 0 0 0 0 0 0 0 0 0 0 0 0 0 0 0 0 0 0
0 0 0 0 0 0 0 0 0 0 0 0 0 0 0 0 0 0 0 0 0 0 0 0 0 0 0 0 0 0 0 0 0 -0 -0 -0 0 0
0 0 0 0 0 0 0 0 0 0 0 0 0 0 0 0 0 0 0 0 0 0 0 0 0 0 0 0 0 0 0 0 0 -0 -0 -0 -0 -0
0 0 0 0 0 0 0 0 0 0 0 0 0 0 0 0 0 0 0 0 0 0 0 0 0 0 0 0 0 0 0 0 0 -0 -0 -0 0 0
0 0 0 0 0 0 0 0 0 0 0 0 0 0 0 0 0 0 0 0 0 0 0 0 0 0 0 0 0 0 0 0 -0 -0 0 0 0 0
0 0 0 0 0 0 0 0 0 0 0 0 0 0 0 0 0 0 0 0 0 0 0 0 0 0 0 0 0 0 0 0 -0 0 0 0 0 0
0 0 0 0 0 0 0 0 0 0 0 0 0 0 0 0 0 0 0 0 0 0 0 0 0 0 0 0 0 0 0 0 0 0 0 0 0 0
0 0 0 0 0 0 0 0 0 -0 -0 -0 -0 0 0 0 0 0 0 0 0 0 0 0 0 0 0 0 0 0 0 0 0 0 0 0 0 0
0 0 0 0 0 0 0 0 0 -0 -0 -0 -0 0 0 0 0 0 0 0 0 0 0 0 0 0 0 0 0 0 0 0 0 0 0 0 0 0
0 0 0 0 0 0 0 0 0 0 -0 -0 -0 0 0 0 0 0 0 0 0 0 0 0 0 0 0 0 0 0 0 0 0 0 0 0 0 0
Wind_Speed
7 7 5 4 4 4 4 4 4 4 5 4 3 3 3 4 9 6 6 14 19 20 21 21 21 22 22 22 23 23 23 24 24 24 24 25 25 25
5 6 6 4 4 4 5 5 5 5 6 4 5 4 4 6 10 7 7 18 19 20 21 21 22 22 22 22 23 24 24 24 24 24 25 25 25 25
6 7 8 6 5 4 4 4 5 5 8 6 4 4 4 6 8 6 7 7 9 19 21 22 22 22 23 23 23 23 24 24 24 24 25 25 25 25
8 7 8 6 6 5 5 6 6 6 6 9 5 4 6 6 7 7 8 7 6 16 21 21 22 22 23 23 23 23 23 23 23 24 24 25 25 24
8 8 8 7 7 5 6 6 5 6 6 7 7 4 5 5 5 6 7 7 8 12 17 19 20 22 23 23 22 22 22 22 22 23 23 23 24 24
7 7 7 8 8 7 6 7 6 6 6 6 7 5 5 5 4 5 6 5 7 8 12 14 18 21 22 22 22 22 21 21 22 22 22 23 23 23
6 6 7 8 10 8 6 6 6 5 5 6 7 5 5 4 5 5 7 6 6 6 7 7 8 7 9 15 18 20 21 21 21 22 22 22 22 22
6 5 6 7 10 13 14 12 9 7 6 6 6 7 7 6 6 6 6 7 7 3 4 6 5 7 7 6 15 20 20 20 20 21 21 22 21 21
5 5 5 6 8 6 10 13 12 15 14 8 7 8 7 6 6 7 7 8 8 5 4 7 4 7 6 9 18 19 19 19 20 20 20 21 21 21
5 5 5 5 6 6 6 6 7 8 10 7 7 8 8 7 8 8 8 8 7 5 4 6 5 6 7 6 15 18 18 18 18 19 19 20 20 20
4 4 5 6 10 12 7 6 7 7 11 15 15 14 16 16 12 6 5 6 7 4 3 4 4 5 5 5 9 15 16 16 17 18 18 18 19 18
3 4 8 9 11 13 7 6 8 7 6 7 8 10 9 10 13 7 4 6 6 5 3 3 3 2 5 4 4 5 7 13 17 17 17 17 18 10
3 3 4 11 13 13 11 6 9 9 4 5 5 5 5 4 5 5 4 5 6 6 3 2 3 2 4 5 4 4 4 5 6 8 12 16 16 11
4 3 5 11 12 12 9 10 13 11 3 2 3 4 4 5 5 5 6 6 6 7 5 4 4 4 5 6 6 4 4 5 5 5 5 11 12 13
4 8 10 11 10 7 9 12 9 3 3 3 5 5 4 5 5 4 5 5 5 5 5 5 5 5 5 6 6 5 5 4 4 4 5 5 5 5
4 6 9 9 7 7 7 6 3 3 4 4 4 4 4 4 4 4 4 3 3 4 4 5 5 6 6 7 7 7 5 5 4 5 5 5 5 5
4 2 2 2 3 3 3 3 3 3 4 4 4 4 5 5 4 3 3 3 3 4 4 3 4 5 7 6 6 7 6 5 5 5 5 6 5 5
6 2 3 3 4 4 4 4 3 4 4 4 4 5 5 5 5 4 3 3 4 4 4 3 3 3 3 4 8 6 5 5 5 5 4 5 6 5
3 3 3 4 4 4 4 4 4 4 4 4 5 5 5 5 5 5 4 4 4 4 4 3 2 2 3 5 5 5 4 5 5 4 4 4 5 6
3 4 4 4 4 4 4 4 4 4 4 4 4 4 4 4 5 5 4 4 4 4 4 3 3 3 4 4 5 5 7 5 4 4 4 4 5 8
4 4 4 4 4 4 5 4 4 5 5 4 4 4 4 4 5 4 4 7 5 3 4 4 5 7 4 2 4 5 5 7 6 4 4 4 4 4
4 4 5 5 5 5 5 4 5 5 5 4 4 4 4 4 5 5 4 4 4 4 5 4 4 3 2 3 4 5 6 5 6 8 7 5 3 3
4 4 5 5 5 4 4 5 6 5 5 5 5 4 4 4 4 4 5 4 4 4 4 4 3 2 2 3 4 4 6 5 4 4 4 7 8 9
Wind_Direction
212 211 214 215 206 208 206 197 209 261 270 248 254 252 250 256 275 276 267 286 294 297 297 296 296 295 293 293 292 292 292 291 290 289 288 287 286 286
209 209 218 217 212 208 211 213 209 224 258 247 240 249 258 270 280 280 271 289 293 296 296 295 294 294 293 292 292 292 291 290 289 289 289 288 288 287
212 211 221 213 212 213 210 212 218 215 251 266 245 250 251 260 274 273 272 271 278 289 293 294 295 295 294 293 292 292 291 290 291 291 291 289 288 287
219 215 225 217 218 216 213 219 225 221 234 268 270 256 249 252 259 266 274 274 267 283 289 292 293 293 294 294 293 292 292 291 292 292 291 290 289 289
218 217 224 216 224 223 221 225 229 234 230 253 270 256 255 256 264 268 267 269 273 279 286 289 291 292 293 293 293 293 293 293 292 291 291 292 291 290
222 222 223 218 224 224 227 229 231 236 239 249 264 263 259 255 253 267 277 262 269 276 279 283 287 290 292 293 294 295 293 292 292 292 292 291 291 289
228 228 228 230 235 237 237 231 225 233 241 251 263 269 265 262 257 256 274 280 269 260 266 271 278 278 283 287 291 292 291 291 291 292 292 292 291 290
231 234 235 240 249 256 261 262 252 246 246 247 258 262 266 258 260 262 273 284 285 246 252 269 266 271 273 267 281 288 290 292 292 293 294 292 290 290
227 233 244 246 258 249 261 269 268 268 268 265 261 262 266 261 263 267 265 267 271 265 262 273 259 266 269 278 287 289 291 294 294 295 296 295 294 292
228 230 238 247 248 254 245 250 252 258 264 265 256 259 260 260 252 262 268 271 267 260 244 267 265 263 276 275 283 288 294 297 298 299 298 299 297 296
240 237 243 244 262 273 267 259 262 260 269 271 271 275 280 286 288 283 280 283 284 269 229 247 265 275 276 268 276 287 296 300 302 303 303 303 300 300
253 249 261 269 275 279 269 259 267 267 265 274 279 285 287 289 293 284 268 273 281 278 237 236 259 286 291 266 262 279 290 296 300 302 304 305 304 303
255 253 255 278 282 284 284 270 275 285 268 261 264 270 275 271 271 265 249 247 262 264 251 238 253 245 257 285 280 266 268 281 294 296 302 304 304 303
258 255 261 281 285 287 289 287 293 299 287 275 274 274 273 270 267 264 259 251 248 255 257 241 251 256 268 278 281 281 279 275 277 285 289 300 302 304
267 276 284 289 293 293 293 297 302 298 278 274 277 278 268 265 269 272 272 269 267 263 259 244 246 257 257 266 276 280 291 286 275 285 293 294 291 296
287 285 293 299 301 297 297 302 295 271 275 269 274 277 277 276 273 268 272 278 285 285 273 259 252 251 259 261 265 274 273 277 292 295 294 290 287 283
287 280 279 281 278 277 278 276 274 283 287 276 276 284 287 284 283 275 264 267 269 283 292 288 273 263 253 253 265 267 274 276 277 289 295 295 287 284
308 291 283 278 273 275 278 279 274 272 269 271 274 277 283 284 286 281 269 261 268 273 277 283 303 314 310 277 240 258 268 270 283 287 283 288 293 293
305 285 281 280 278 278 276 274 274 274 271 271 273 275 278 281 280 280 279 273 272 274 275 274 274 274 291 296 289 248 257 285 292 290 278 275 284 293
278 272 273 273 272 271 271 272 274 278 273 271 270 273 274 278 279 277 276 271 275 277 281 277 261 252 252 271 284 285 277 274 280 290 293 290 280 286
274 271 269 269 269 269 269 270 269 272 271 269 268 269 269 269 271 272 274 280 279 272 277 277 268 285 276 274 282 284 286 285 285 282 291 298 300 303
269 269 270 268 268 266 267 267 269 269 268 264 265 266 266 262 263 266 267 270 267 265 268 275 287 291 265 259 274 283 293 302 302 299 288 275 282 301
268 269 270 272 268 265 263 264 264 266 262 260 261 261 261 262 260 259 261 261 264 267 273 281 287 274 260 256 268 278 289 298 305 313 305 306 298 289